NOAA 16 DEB

Satellite information

Favourite Embed

Satellite Type and Status

DEBRISIN ORBIT

Key statistics

Satellite NOAA 16 DEB at a glance.

Uptime

9161

Days in orbit

Revolutions

≈ 14.2

Per day

Orbit

SSO

Sun Synchronous Orbit

Inclination

98.6

Latest

Satellite identification and parameters

Extended collection of information and parameters for NOAA 16 DEB.

Object identification

Identified? True

Debris? True

Object name: NOAA 16 DEB

International designator: 2000-055NM

Object number (NORAD): 41537

Object ID (CCSDS): 41537

Country: UNITED STATES OF AMERICA (US)

Current information (Y/N): Y

RCS size: SMALL

Orbital parameters

Period: 101.222 minutes

Inclination: 98.6179 deg

SMA: 7194.676 km

Apoapsis: 818.73 km

Periapsis: 814.351 km

RAAN: 356.9607 deg

Eccentricy: 0.0003043

Argument of periapsis: 272.723 deg

Mean anomaly: 87.36 deg

Mean motion: 14.22610225 rev/day

Mean motion (dot): 0.00004194 rev/day2

B* drag term: 0.0018946 1/REarth

Two-line elements (TLE)

Creation date: Oct. 20, 2025, 6:36 a.m.

Reference frame: TEME

Reference center: EARTH

Epoch: Oct. 19, 2025, 9:46 p.m. UTC

TLE line 0: 0 NOAA 16 DEB

TLE line 1: 1 41537U 00055NM 25292.90726470 .00004194 00000-0 18946-2 0 9993

TLE line 2: 2 41537 98.6179 356.9607 0003043 272.7230 87.3600 14.22610225503446

Live tracking on map

Real-time ground track for satellite NOAA 16 DEB.

In-orbit conjunctions

A list of the most updated potential collisions computed for object NOAA 16 DEB.

Target Orbit TCA Probability of collision Miss distance Type
THOR ABLESTAR DEB LEO 2025-02-03 02:11:03 0.0001146302 111.0 (m) DEBRIS
COSMOS 2251 DEB LEO 2024-11-09 14:00:35 0.0003783483 351.0 (m) DEBRIS

Associated space launch

The NOAA K, L and M POES satellites begin the fifth generation of improved environmental monitoring in support of NOAA missions. The instrument payload has significant improvements and additions/deletions. The instrument changes have effected the spacecraft subsystems and data formats.

NOAA 16 DEB was lifted into orbit during the mission ‘Titan II SLV | NOAA 16’, on board a Titan II SLV space rocket.

The launch took place on Sept. 21, 2000, 10:22 a.m. from Space Launch Complex 4W.

For more information about the launch, click the button.

Launch to space Titan II SLV | NOAA 16
Titan II SLV | NOAA 16

Agency: N/A

Status: Launch Successful

Launch date: Sept. 21, 2000, 10:22 a.m. UTC

Rocket: Titan II SLV

Launch pad: Space Launch Complex 4W

Location: Vandenberg SFB, CA, USA

...

Latest news about this satellite

There are no fresh news available about this satellite. Check back as we update our databases every day.


Newsletter sign-up

Weekly statistics, charts and insights to help you stay on top of the space industry.